Regional Weather Roundup
Issued by NWS

Current Version | Previous Version | Text Only | Print | Product List | Glossary Off
Versions: 1 2 3 4 5 6 7 8 9 10 11 12 13 14 15 16 17 18 19 20 21 22 23 24 25 26 27 28 29 30 31 32 33 34 35 36 37 38 39 40 41 42 43 44 45 46 47 48

000
ASUS42 KFFC 270003
RWRGA
WEATHER ROUNDUP FOR GEORGIA
NATIONAL WEATHER SERVICE PEACHTREE CITY GA
700 PM EST THU FEB 26 2015

NOTE: "FAIR" INDICATES FEW OR NO CLOUDS BELOW 12,000 FEET WITH NO
SIGNIFICANT WEATHER AND/OR OBSTRUCTIONS TO VISIBILITY.

* = USE WITH CAUTION. THE STATIONS MARKED WITH AN ASTERISK MAY NOT
REPORT WEATHER SUCH AS PRECIPITATION, FOG, OR THUNDER AND ARE NOT
QUALITY CONTROLLED BY NWS.

THE REMARK "TC" DENOTES TEMPERATURE READING IN DEGREES CELSIUS.

GAZ001>058-270100-
NORTH GEORGIA

CITY           SKY/WX    TMP DP  RH WIND       PRES   REMARKS
ATLANTA        CLOUDY    38  30  73 NW12      30.07R WCI  30
6HR MIN TEMP:  37; 6HR MAX TEMP:  41;

ATHENS         CLOUDY    38  33  82 SW3       30.04R
6HR MIN TEMP:  38; 6HR MAX TEMP:  43;

CHAMBLEE       CLOUDY    36  29  75 NW12G21   30.07R WCI  28
6HR MIN TEMP:  36; 6HR MAX TEMP:  37;

PEACHTREE CITY CLOUDY    38  31  76 NW13      30.09R WCI  30
6HR MIN TEMP:  38; 6HR MAX TEMP:  47;

ROME           CLOUDY    39  31  72 NW3       30.10R
6HR MIN TEMP:  37; 6HR MAX TEMP:  41;

WEST ATLANTA   CLOUDY    38  29  70 N6        30.08R WCI  33
6HR MIN TEMP:  37; 6HR MAX TEMP:  38;

GAINESVILLE    CLEAR     36  31  82 W8        30.04R WCI  30
6HR MIN TEMP:  34; 6HR MAX TEMP:  39;

CARTERSVILLE   CLOUDY    36  30  79 CALM      30.10R
6HR MIN TEMP:  36; 6HR MAX TEMP:  38;



CITY           SKY/WX    TMP DP  RH WIND       PRES   REMARKS
DALTON*        CLOUDY    36  32  87 CALM      30.09R
LAWRENCEVILLE* CLEAR     36  27  69 W5        30.04R WCI  32
KENNESAW*      CLOUDY    36  28  75 NW9       30.09R WCI  29
$$

GAZ059>098-102>109-270100-
CENTRAL GEORGIA

CITY           SKY/WX    TMP DP  RH WIND       PRES   REMARKS
AUGUSTA-BUSH   CLOUDY    45  37  73 NW6       30.05R
6HR MIN TEMP:  44; 6HR MAX TEMP:  47;

AUGUSTA-DANIEL CLOUDY    46  36  68 NW5       30.04R
6HR MIN TEMP:  44; 6HR MAX TEMP:  47;

COLUMBUS       CLOUDY    41  32  70 N8        30.09R
6HR MIN TEMP:  41; 6HR MAX TEMP:  48;

MACON          MOCLDY    46  36  68 N10       30.05R
6HR MIN TEMP:  46; 6HR MAX TEMP:  52;

ROBINS AFB     CLOUDY    48  37  65 NW13      30.03R


CITY           SKY/WX    TMP DP  RH WIND       PRES   REMARKS
LAGRANGE*      CLOUDY    41  35  79 N7        30.10R
SYLVANIA*      CLOUDY    45  40  83 N5        30.06R
MILLEDGEVILLE* MOCLDY    45  41  87 N3        30.05R
$$

GAZ099>101-110>166-270100-
SOUTH GEORGIA

CITY           SKY/WX    TMP DP  RH WIND       PRES   REMARKS
SAVANNAH       CLOUDY    47  39  74 N6        30.05R
6HR MIN TEMP:  44; 6HR MAX TEMP:  50;

VALDOSTA       CLOUDY    48  40  73 N10       30.04R
6HR MIN TEMP:  48; 6HR MAX TEMP:  54;

ALMA           CLOUDY    46  38  73 N5        30.05R
6HR MIN TEMP:  46; 6HR MAX TEMP:  48;

ST SIMONS      CLOUDY    48  39  71 N8        30.05R
6HR MIN TEMP:  48; 6HR MAX TEMP:  55;

FT STEWART     CLOUDY    47  40  76 N5        30.03R
ALBANY         CLOUDY    45  38  76 CALM      30.08R
HUNTER AFB     CLOUDY    48  39  70 N8        30.02R
MOODY AFB      CLOUDY    47  39  73 N10       30.04R
BRUNSWICK      CLOUDY    48  39  71 N5        30.04R


CITY           SKY/WX    TMP DP  RH WIND       PRES   REMARKS
BAINBRIDGE*    CLOUDY    46  41  81 N7        30.08R
MOULTRIE*      CLOUDY    45  41  87 N3        30.06R
VIDALIA*       CLOUDY    46  41  81 CALM      30.04R
WAYCROSS*      CLOUDY    50  42  74 N8        30.05R
DOUGLAS*       CLOUDY    46  37  71 N5        30.07R
$$


USA.gov is the U.S. government's official web portal to all federal, state and local government web resources and services.